Regional Weather Roundup
Issued by NWS

Home | Current Version | Previous Version | Text Only | Print | Product List | Glossary Off
Versions: 1 2 3 4 5 6 7 8 9 10 11 12 13 14 15 16 17 18 19 20 21 22 23 24 25 26 27 28 29 30 31 32 33 34 35 36 37 38 39 40 41 42 43 44 45 46 47 48 49 50

000
ASUS43 KMPX 280301
RWRMN
WEATHER ROUNDUP FOR MINNESOTA
NATIONAL WEATHER SERVICE TWIN CITIES/CHANHASSEN MN
1000 PM CDT WED APR 27 2016


NOTE: "FAIR" INDICATES FEW OR NO CLOUDS BELOW 12,000 FEET WITH NO
SIGNIFICANT WEATHER AND/OR OBSTRUCTIONS TO VISIBILITY. N/A MEANS
CURRENT SKY AND/OR WEATHER CONDITIONS ARE NOT AVAILABLE.

MNZ060>063-068>070-280400-
   Twin Cities Metro

CITY           SKY/WX    TMP DP  RH WIND       PRES   REMARKS
TWIN CITIES    CLOUDY    45  31  58 E26G35    29.88R
ST PAUL        CLOUDY    45  33  63 SE10G21   29.91R
CRYSTAL        CLOUDY    46  37  71 E6        29.89R
BLAINE         CLOUDY    45  41  87 E6        29.90R
EDEN PRAIRIE   CLOUDY    46  32  58 E21G28    29.86R
SOUTH ST PAUL  LGT RAIN  43  34  70 E14G25    29.90R
LAKE ELMO      LGT RAIN  43  36  75 E7        29.91R
$$
MNZ001>005-007-008-013>017-022>024-027-028-280400-
   Northwest Minnesota

CITY           SKY/WX    TMP DP  RH WIND       PRES   REMARKS
BEMIDJI        CLOUDY    46  19  33 E9        30.00R
HALLOCK        MOCLDY    48  18  29 NE7       30.06R
ROSEAU         MOCLDY    45  28  53 NE8       30.08R
WARROAD        MOCLDY    45  25  45 NE14G20   30.09R
THIEF RVR FALL MOCLDY    48  21  34 NE10      30.03R
CROOKSTON      CLOUDY    50  21  32 E10G16    30.01R
FOSSTON        MOCLDY    45  28  53 NE7       30.00R
MOORHEAD       CLOUDY    50  19  29 E9        29.97R
PARK RAPIDS    MOCLDY    47   3  16 E15G26    29.95R
MAHNOMEN       FAIR      46  24  41 E12       29.97R
$$
MNZ006-009>011-018-025>026-280400-
   North Central Minnesota

CITY           SKY/WX    TMP DP  RH WIND       PRES   REMARKS
BAUDETTE       CLOUDY    46  16  30 NE10      30.07R
FLAG ISLAND    CLOUDY    46  18  31 NE9       30.09R
INTL FALLS     CLOUDY    46  14  27 NE7       30.07R
WASKISH        MOCLDY    46  25  42 NE8       30.04R
BIG FORK       CLOUDY    45  21  39 NE3       30.03R
LONGVILLE      CLOUDY    45  12  26 E10G16    29.98S
GRAND RAPIDS   CLOUDY    41  14  33 E7        30.04R
CRANE LAKE     PTCLDY    32  25  74 CALM      30.08R
ORR            CLOUDY    46  10  23 CALM      30.03R
COOK           CLOUDY    43  23  45 SE6       30.06R
WALKER         FAIR      45  18  34 E8        29.99R
$$
MNZ012-019>021-037-280400-
   Northeast Minnesota

CITY           SKY/WX    TMP DP  RH WIND       PRES   REMARKS
DULUTH         CLOUDY    37  14  38 NE16      30.01F
ELY            PTCLDY    37  18  44 SE6       30.08R
HIBBING        PTCLDY    38  16  40 E6        30.05R
EVELETH        PTCLDY    36  19  51 NE3       30.07R
DULUTH HARBOR  CLOUDY    37  30  75 NE18G25   30.04S
TWO HARBORS    CLOUDY    37  19  48 NE8       30.05S
SILVER BAY     CLOUDY    36  18  48 CALM      30.06S
GRAND MARAIS     N/A     31  21  66 CALM      30.11R
G MARAIS ARPRT CLOUDY    32  16  51 NE3       30.09R
$$
MNZ029>031-032-039>041-046>048-054>057-064-280400-
   West Central Minnesota

CITY           SKY/WX    TMP DP  RH WIND       PRES   REMARKS
FERGUS FALLS   CLOUDY    45  18  33 E14G20    29.93R
WHEATON        DRIZZLE   43  36  75 NE8       29.94R
MORRIS         CLOUDY    43  30  61 E12       29.90R
ALEXANDRIA     CLOUDY    41  24  51 NE16G26   29.90R
ELBOW LAKE     DRIZZLE   43  24  46 NE8       29.92R
WADENA         CLOUDY    45  12  26 E18G24    29.93R
GLENWOOD       CLOUDY    39  28  65 NE17      29.90R
APPLETON       CLOUDY    45  39  81 NE6       29.88R
BENSON         CLOUDY    43  32  65 E9        29.89R
ORTONVILLE     CLOUDY    41  37  87 NE7       29.89R
MADISON        LGT RAIN  43  41  93 NE9       29.87R
WILLMAR        CLOUDY    45  39  81 E12       29.87S
$$
MNZ033>034-036-042>043-049>051-058-059-280400-
   Central Minnesota

CITY           SKY/WX    TMP DP  RH WIND       PRES   REMARKS
ST CLOUD       CLOUDY    41  30  65 E9        29.90R
SAUK CENTRE    CLOUDY    40  26  58 NE13G20   29.91R
PAYNESVILLE    CLOUDY    42  32  67 NE13      29.88R
AITKIN         CLOUDY    45   0  15 NE12G20   29.95S
PINE RIVER     CLOUDY    45  12  26 E20G28    29.99F
BRAINERD       CLOUDY    43   4  19 NE16G25   29.94R
STAPLES        CLOUDY    43   7  22 E7        29.94R
LONG PRAIRIE   MIX PCPN  37  25  60 NE10G16   29.93R
LITTLE FALLS   MIX PCPN  39  27  60 NE3       29.94R
LITCHFIELD     CLOUDY    45  39  81 E10G16    29.87R
BUFFALO        CLOUDY    44  37  75 NE10      29.89R
MAPLE LAKE     CLOUDY    45  40  82 NE9       29.89R
HUTCHINSON     RAIN      44  39  84 E13       29.86R
$$
MNZ037-044-045-052-053-280400-
   East Central Minnesota

CITY           SKY/WX    TMP DP  RH WIND       PRES   REMARKS
PRINCETON      CLOUDY    41  34  75 NE6       29.91S
MORA           CLOUDY    41  19  42 NE6G20    29.95R
CAMBRIDGE      CLOUDY    45  28  53 NE8       29.89R
RUSH CITY      CLOUDY    42  22  45 NE13G20   29.92R
MOOSE LAKE     CLOUDY    37  19  48 NE9G17    29.95F
HINCKLEY       MOCLDY    43  21  42 NE8       29.94S
CLOQUET        CLOUDY    39   7  26 E10G20    30.00F
MCGREGOR       CLOUDY    41  12  30 NE9G20    29.98F
$$
MNZ071>073-080-081-089-090-097-098-280400-
   Southwest Minnesota

CITY           SKY/WX    TMP DP  RH WIND       PRES   REMARKS
MONTEVIDEO     HVY RAIN  41  41 100 E9        29.88R
GRANITE FALLS  CLOUDY    44  40  88 NE15      29.86S
CANBY          LGT RAIN  44  43  97 NE14      29.85S
MARSHALL       LGT RAIN  41  39  93 E16       29.82R
REDWOOD FALLS  CLOUDY    43  38  82 E13G20    29.83R
OLIVIA         CLOUDY    43  36  75 E12G18    29.84R
PIPESTONE      RAIN      41  39  93 E22G28    29.74R
WINDOM         LGT RAIN  43  41  93 E17G28    29.77R
WORTHINGTON    LGT RAIN  41  39  93 E18       29.75R FOG
JACKSON        CLOUDY    41  37  87 E15       29.75S
TRACY          RAIN      42  41  98 E18       29.81R
SLAYTON        LGT RAIN  40  40 100 E16       29.77R
$$
MNZ065>067-074>077-082>085-091>093-280400-
   South Central Minnesota

CITY           SKY/WX    TMP DP  RH WIND       PRES   REMARKS
MANKATO        CLOUDY    43  37  81 E17       29.81R
NEW ULM        CLOUDY    43  39  87 E12G20    29.80S
ST JAMES       LGT RAIN  37  36  93 E17G24    29.80R
FAIRMONT       CLOUDY    43  32  65 E20       29.75S
GLENCOE        CLOUDY    45  39  80 E12G21    29.85R
FARIBAULT      CLOUDY    41  39  93 E12       29.84R
OWATONNA       CLOUDY    43  37  81 E20G28    29.81S
$$
MNZ078>079-086>088-094>096-280400-
   Southeast Minnesota

CITY           SKY/WX    TMP DP  RH WIND       PRES   REMARKS
ROCHESTER      CLOUDY    41  36  82 E17       29.81S
RED WING       LGT RAIN  41  37  87 E14G26    29.87S
STANTON        CLOUDY    42  37  83 E13       29.86R
DODGE CENTER   CLOUDY    39  37  93 E23G29    29.81R
WINONA         CLOUDY    43  36  75 E12       29.88F
AUSTIN         CLOUDY    43  37  81 E17G26    29.78F
PRESTON        CLOUDY    41  34  77 E18G25    29.82S
$$
ABBREVIATIONS USED IN REMARKS
   TC - TEMPERATURES IN CELSIUS
  WCI - WIND CHILL INDEX
   HX - HEAT INDEX
  VSB - VISIBILITY
$$




USA.gov is the U.S. government's official web portal to all federal, state and local government web resources and services.